Location: Dresden
(51.0483°N, 13.7137°E)
Time: 15:28:14
(UTC+01:00)

ISS - Pass Details

Date: 08 January 2018
Orbit: 402 x 407 km, 51.6° (Epoch: 21 January)

Event Time Altitude Azimuth Distance (km) Brightness Sun altitude
Exits shadow 06:38:33 24° 278° (W) 889 -2.7 -13.1°
Maximum altitude 06:40:22 73° 197° (SSW) 429 -3.8 -12.8°
Drops below altitude 10° 06:43:39 10° 112° (ESE) 1,468 0.5 -12.3°
Sets 06:45:44 0° 110° (ESE) 2,328 2.2 -12.0°
